Location: Saint-Palais-sur-Mer
(45.6429°N, 1.0859°W)
Time: 21:55:25
(UTC+02:00)

SPROUT - Visible Passes

Search period start: 22 April 2024 00:00
Search period end: 02 May 2024 00:00
Orbit: 466 x 474 km, 98.0° (Epoch: 22 April)

Date Brightness Start Highest point End Pass type
(mag) Time Alt. Az. Time Alt. Az. Time Alt. Az.
22 Apr ? 04:49:36 80° SSE 04:49:48 88° ENE 04:53:20 10° NNW visible
23 Apr ? 04:20:18 32° E 04:21:01 36° ENE 04:24:18 10° N visible
23 Apr ? 05:54:20 15° W 05:54:20 15° W 05:56:23 10° NW visible
24 Apr ? 03:50:43 14° E 03:52:06 18° ENE 03:54:30 10° NNE visible
24 Apr ? 05:24:44 32° WSW 05:24:56 33° W 05:28:09 10° NNW visible
25 Apr ? 04:54:50 58° S 04:55:26 81° WSW 04:58:58 10° NNW visible
26 Apr ? 04:24:40 30° ESE 04:25:47 40° ENE 04:29:06 10° N visible
26 Apr ? 05:58:38 13° W 05:59:01 14° W 06:00:50 10° WNW visible
27 Apr ? 03:54:12 13° ESE 03:55:59 19° ENE 03:58:28 10° NNE visible
27 Apr ? 05:28:09 28° WSW 05:28:47 30° W 05:31:55 10° NW visible
28 Apr ? 04:57:23 43° S 04:58:24 77° WSW 05:01:54 10° NNW visible
29 Apr ? 04:26:19 25° SE 04:27:52 41° ENE 04:31:10 10° N visible
29 Apr ? 06:00:14 12° WSW 06:01:02 13° W 06:02:46 10° WNW visible
30 Apr ? 03:54:58 11° ESE 03:57:11 18° ENE 03:59:38 10° NNE visible
30 Apr ? 05:28:53 25° SW 05:29:56 30° W 05:33:02 10° NW visible
01 May ? 04:57:13 32° S 04:58:41 79° WSW 05:02:09 10° NNW visible
